Time,TemperatureF,DewpointF,PressureIn,WindDirection,WindDirectionDegrees,WindSpeedMPH,WindSpeedGustMPH,Humidity,HourlyPrecipIn,Conditions,Clouds,dailyrainin,SoftwareType,DateUTC
2015-04-19 00:00:00,71.7,68.3,29.96,WNW,288,0.0,0.0,89,0.00,,,0.00,Wunderground v.1.15,2015-04-19 04:00:00,
2015-04-19 00:05:00,71.4,68.0,29.96,WNW,288,0.0,0.0,89,0.00,,,0.00,Wunderground v.1.15,2015-04-19 04:05:00,
2015-04-19 00:10:00,71.3,68.2,29.96,WNW,288,0.0,0.0,90,0.00,,,0.00,Wunderground v.1.15,2015-04-19 04:10:00,
2015-04-19 00:15:00,71.2,68.4,29.96,WNW,288,0.0,0.0,91,0.00,,,0.00,Wunderground v.1.15,2015-04-19 04:15:00,
2015-04-19 00:25:00,70.9,68.1,29.96,WNW,288,0.0,0.0,91,0.00,,,0.00,Wunderground v.1.15,2015-04-19 04:25:00,
2015-04-19 00:30:00,70.9,68.1,29.96,WNW,288,0.0,0.0,91,0.00,,,0.00,Wunderground v.1.15,2015-04-19 04:30:00,
2015-04-19 00:35:00,70.8,68.0,29.96,WNW,288,0.0,0.0,91,0.00,,,0.00,Wunderground v.1.15,2015-04-19 04:35:00,
2015-04-19 00:40:00,70.7,68.3,29.96,WNW,288,0.0,0.0,92,0.00,,,0.00,Wunderground v.1.15,2015-04-19 04:40:00,
2015-04-19 00:45:00,70.6,68.2,29.96,WNW,288,0.0,0.0,92,0.00,,,0.00,Wunderground v.1.15,2015-04-19 04:45:00,
2015-04-19 00:55:00,70.3,67.9,29.95,WNW,288,0.0,0.0,92,0.00,,,0.00,Wunderground v.1.15,2015-04-19 04:55:00,
2015-04-19 01:00:00,70.2,67.8,29.96,WNW,288,0.0,0.0,92,0.00,,,0.00,Wunderground v.1.15,2015-04-19 05:00:00,
2015-04-19 01:05:00,70.2,67.8,29.95,WNW,288,0.0,0.0,92,0.00,,,0.00,Wunderground v.1.15,2015-04-19 05:05:00,
2015-04-19 01:10:00,70.1,68.0,29.95,WNW,288,0.0,0.0,93,0.00,,,0.00,Wunderground v.1.15,2015-04-19 05:10:00,
2015-04-19 01:15:00,70.0,67.9,29.95,WNW,288,0.0,0.0,93,0.00,,,0.00,Wunderground v.1.15,2015-04-19 05:15:00,
2015-04-19 01:20:00,69.8,67.4,29.94,WNW,288,0.0,0.0,92,0.00,,,0.00,Wunderground v.1.15,2015-04-19 05:20:00,
2015-04-19 01:25:00,69.7,67.6,29.94,WNW,288,0.0,0.0,93,0.00,,,0.00,Wunderground v.1.15,2015-04-19 05:25:00,
2015-04-19 01:30:00,69.7,67.6,29.94,WNW,288,0.0,0.0,93,0.00,,,0.00,Wunderground v.1.15,2015-04-19 05:30:00,
2015-04-19 01:35:00,69.6,67.5,29.93,WNW,288,0.0,0.0,93,0.00,,,0.00,Wunderground v.1.15,2015-04-19 05:35:00,
2015-04-19 01:40:00,69.6,67.8,29.93,WNW,288,0.0,0.0,94,0.00,,,0.00,Wunderground v.1.15,2015-04-19 05:40:00,
2015-04-19 01:45:00,69.5,67.7,29.93,WNW,288,0.0,0.0,94,0.00,,,0.00,Wunderground v.1.15,2015-04-19 05:45:00,
2015-04-19 01:50:00,69.5,67.7,29.93,WNW,288,0.0,0.0,94,0.00,,,0.00,Wunderground v.1.15,2015-04-19 05:50:00,
2015-04-19 02:00:00,69.3,67.5,29.93,WNW,288,0.0,0.0,94,0.00,,,0.00,Wunderground v.1.15,2015-04-19 06:00:00,
2015-04-19 02:05:00,69.3,67.5,29.93,WNW,288,0.0,0.0,94,0.00,,,0.00,Wunderground v.1.15,2015-04-19 06:05:00,
2015-04-19 02:10:00,69.2,67.4,29.93,WNW,288,0.0,0.0,94,0.00,,,0.00,Wunderground v.1.15,2015-04-19 06:10:00,
2015-04-19 02:15:00,69.2,67.4,29.92,WNW,288,0.0,0.0,94,0.00,,,0.00,Wunderground v.1.15,2015-04-19 06:15:00,
2015-04-19 02:20:00,69.1,67.3,29.92,WNW,288,0.0,0.0,94,0.00,,,0.00,Wunderground v.1.15,2015-04-19 06:20:00,
2015-04-19 02:30:00,68.9,67.1,29.92,WNW,288,0.0,0.0,94,0.00,,,0.00,Wunderground v.1.15,2015-04-19 06:30:00,
2015-04-19 02:35:00,68.8,67.0,29.92,WNW,288,0.0,0.0,94,0.00,,,0.00,Wunderground v.1.15,2015-04-19 06:35:00,
2015-04-19 02:40:00,68.7,66.9,29.92,WNW,288,0.0,0.0,94,0.00,,,0.00,Wunderground v.1.15,2015-04-19 06:40:00,
2015-04-19 02:45:00,68.6,67.1,29.92,WNW,288,0.0,0.0,95,0.00,,,0.00,Wunderground v.1.15,2015-04-19 06:45:00,
2015-04-19 02:50:00,68.6,67.1,29.92,WNW,288,0.0,0.0,95,0.00,,,0.00,Wunderground v.1.15,2015-04-19 06:50:00,
2015-04-19 03:00:00,68.6,67.1,29.92,WNW,288,0.0,0.0,95,0.00,,,0.00,Wunderground v.1.15,2015-04-19 07:00:00,
2015-04-19 03:15:00,68.4,66.9,29.92,WNW,288,0.0,0.0,95,0.00,,,0.00,Wunderground v.1.15,2015-04-19 07:15:00,
2015-04-19 03:20:00,68.4,66.9,29.92,WNW,288,0.0,0.0,95,0.00,,,0.00,Wunderground v.1.15,2015-04-19 07:20:00,
2015-04-19 03:25:00,68.5,67.3,29.92,WNW,288,0.0,0.0,96,0.00,,,0.00,Wunderground v.1.15,2015-04-19 07:25:00,
2015-04-19 03:35:00,68.9,67.7,29.91,WNW,288,0.0,0.0,96,0.00,,,0.00,Wunderground v.1.15,2015-04-19 07:35:00,
2015-04-19 03:40:00,69.0,67.8,29.91,WNW,288,0.0,0.0,96,0.00,,,0.00,Wunderground v.1.15,2015-04-19 07:40:00,
2015-04-19 03:45:00,69.1,67.9,29.91,WNW,288,0.0,0.0,96,0.00,,,0.00,Wunderground v.1.15,2015-04-19 07:45:00,
2015-04-19 03:50:00,69.2,68.0,29.91,WNW,288,0.0,0.0,96,0.00,,,0.00,Wunderground v.1.15,2015-04-19 07:50:00,
2015-04-19 03:55:00,69.3,68.4,29.91,WNW,288,0.0,0.0,97,0.00,,,0.00,Wunderground v.1.15,2015-04-19 07:55:00,
2015-04-19 04:05:00,69.5,68.3,29.91,WNW,288,0.0,0.0,96,0.00,,,0.00,Wunderground v.1.15,2015-04-19 08:05:00,
2015-04-19 04:15:00,69.4,68.2,29.91,WNW,288,0.0,0.0,96,0.00,,,0.00,Wunderground v.1.15,2015-04-19 08:15:00,
2015-04-19 04:20:00,69.3,68.1,29.91,WNW,288,0.0,0.0,96,0.00,,,0.00,Wunderground v.1.15,2015-04-19 08:20:00,
2015-04-19 04:25:00,69.2,68.0,29.90,NNW,346,0.0,0.0,96,0.00,,,0.00,Wunderground v.1.15,2015-04-19 08:25:00,
2015-04-19 04:35:00,68.8,67.6,29.90,NNW,346,0.0,0.0,96,0.00,,,0.00,Wunderground v.1.15,2015-04-19 08:35:00,
2015-04-19 04:40:00,68.7,67.5,29.90,NNW,346,0.0,0.0,96,0.00,,,0.00,Wunderground v.1.15,2015-04-19 08:40:00,
2015-04-19 04:45:00,68.6,67.4,29.90,NNW,346,0.0,0.0,96,0.00,,,0.00,Wunderground v.1.15,2015-04-19 08:45:00,
2015-04-19 04:50:00,68.5,67.3,29.90,NNW,346,0.0,0.0,96,0.00,,,0.00,Wunderground v.1.15,2015-04-19 08:50:00,
2015-04-19 04:55:00,68.5,67.3,29.90,NNW,346,0.0,0.0,96,0.00,,,0.00,Wunderground v.1.15,2015-04-19 08:55:00,
2015-04-19 05:05:00,68.2,67.0,29.90,NNW,346,0.0,0.0,96,0.00,,,0.00,Wunderground v.1.15,2015-04-19 09:05:00,
2015-04-19 05:10:00,68.1,66.9,29.91,NNW,346,0.0,0.0,96,0.00,,,0.00,Wunderground v.1.15,2015-04-19 09:10:00,
2015-04-19 05:15:00,68.1,66.9,29.91,NNW,346,0.0,0.0,96,0.00,,,0.00,Wunderground v.1.15,2015-04-19 09:15:00,
2015-04-19 05:20:00,68.0,66.8,29.91,NNW,346,0.0,0.0,96,0.00,,,0.00,Wunderground v.1.15,2015-04-19 09:20:00,
2015-04-19 05:25:00,67.8,66.6,29.91,NNW,346,0.0,0.0,96,0.00,,,0.00,Wunderground v.1.15,2015-04-19 09:25:00,
2015-04-19 05:30:00,67.7,66.5,29.92,NNW,346,0.0,0.0,96,0.00,,,0.00,Wunderground v.1.15,2015-04-19 09:30:00,
2015-04-19 05:40:00,67.5,66.6,29.92,NNW,346,0.0,0.0,97,0.00,,,0.00,Wunderground v.1.15,2015-04-19 09:40:00,
2015-04-19 05:45:00,67.7,66.8,29.92,NNW,346,0.0,0.0,97,0.00,,,0.00,Wunderground v.1.15,2015-04-19 09:45:00,
2015-04-19 05:50:00,67.7,66.8,29.92,NNW,346,0.0,0.0,97,0.00,,,0.00,Wunderground v.1.15,2015-04-19 09:50:00,
2015-04-19 05:55:00,67.8,66.9,29.93,NNW,346,0.0,0.0,97,0.00,,,0.00,Wunderground v.1.15,2015-04-19 09:55:00,
2015-04-19 06:00:00,67.7,66.8,29.92,NNW,346,0.0,0.0,97,0.00,,,0.00,Wunderground v.1.15,2015-04-19 10:00:00,
2015-04-19 06:10:00,67.5,66.6,29.93,NNW,346,0.0,0.0,97,0.00,,,0.00,Wunderground v.1.15,2015-04-19 10:10:00,
2015-04-19 06:20:00,67.5,66.6,29.93,NNW,346,0.0,0.0,97,0.00,,,0.00,Wunderground v.1.15,2015-04-19 10:20:00,
2015-04-19 06:25:00,67.7,66.8,29.93,NNW,346,0.0,0.0,97,0.00,,,0.00,Wunderground v.1.15,2015-04-19 10:25:00,
2015-04-19 06:30:00,67.9,67.0,29.93,NNW,346,0.0,0.0,97,0.00,,,0.00,Wunderground v.1.15,2015-04-19 10:30:00,
2015-04-19 06:40:00,67.7,66.8,29.94,NNW,346,0.0,0.0,97,0.00,,,0.00,Wunderground v.1.15,2015-04-19 10:40:00,
2015-04-19 06:45:00,67.7,66.8,29.94,NNW,346,0.0,0.0,97,0.00,,,0.00,Wunderground v.1.15,2015-04-19 10:45:00,
2015-04-19 06:50:00,67.7,66.8,29.94,NNW,346,0.0,0.0,97,0.00,,,0.00,Wunderground v.1.15,2015-04-19 10:50:00,
2015-04-19 06:55:00,67.6,66.7,29.94,NNW,346,0.0,0.0,97,0.00,,,0.00,Wunderground v.1.15,2015-04-19 10:55:00,
2015-04-19 07:00:00,67.5,66.6,29.94,NNW,346,0.0,0.0,97,0.00,,,0.00,Wunderground v.1.15,2015-04-19 11:00:00,
2015-04-19 07:10:00,67.3,66.4,29.95,NNW,346,0.0,0.0,97,0.00,,,0.00,Wunderground v.1.15,2015-04-19 11:10:00,
2015-04-19 07:15:00,67.3,66.4,29.95,NNW,346,0.0,0.0,97,0.00,,,0.00,Wunderground v.1.15,2015-04-19 11:15:00,
2015-04-19 07:20:00,67.3,66.4,29.95,NNW,346,0.0,0.0,97,0.00,,,0.00,Wunderground v.1.15,2015-04-19 11:20:00,
2015-04-19 07:25:00,67.3,66.4,29.94,NNW,346,0.0,0.0,97,0.00,,,0.00,Wunderground v.1.15,2015-04-19 11:25:00,
2015-04-19 07:30:00,67.2,66.3,29.95,NNW,346,0.0,0.0,97,0.00,,,0.00,Wunderground v.1.15,2015-04-19 11:30:00,
2015-04-19 07:35:00,67.3,66.4,29.95,NNW,346,0.0,0.0,97,0.00,,,0.00,Wunderground v.1.15,2015-04-19 11:35:00,
2015-04-19 07:45:00,67.8,67.2,29.95,NNW,346,0.0,0.0,98,0.00,,,0.00,Wunderground v.1.15,2015-04-19 11:45:00,
2015-04-19 07:50:00,67.9,67.3,29.95,NNW,346,0.0,0.0,98,0.00,,,0.00,Wunderground v.1.15,2015-04-19 11:50:00,
2015-04-19 07:55:00,68.2,67.6,29.96,NNW,346,0.0,0.0,98,0.00,,,0.00,Wunderground v.1.15,2015-04-19 11:55:00,
2015-04-19 08:00:00,68.6,68.0,29.96,NNW,346,0.0,0.0,98,0.00,,,0.00,Wunderground v.1.15,2015-04-19 12:00:00,
2015-04-19 08:05:00,69.0,68.4,29.96,NNW,346,0.0,0.0,98,0.00,,,0.00,Wunderground v.1.15,2015-04-19 12:05:00,
2015-04-19 08:15:00,69.9,69.3,29.96,NNW,346,0.0,0.0,98,0.00,,,0.00,Wunderground v.1.15,2015-04-19 12:15:00,
2015-04-19 08:20:00,70.3,69.7,29.96,NNW,346,0.0,0.0,98,0.00,,,0.00,Wunderground v.1.15,2015-04-19 12:20:00,
2015-04-19 08:25:00,70.9,70.3,29.96,NNW,346,0.0,0.0,98,0.00,,,0.00,Wunderground v.1.15,2015-04-19 12:25:00,
2015-04-19 08:30:00,71.3,70.7,29.96,South,191,0.0,0.0,98,0.00,,,0.00,Wunderground v.1.15,2015-04-19 12:30:00,
2015-04-19 08:35:00,71.8,71.2,29.95,South,191,0.0,0.0,98,0.00,,,0.00,Wunderground v.1.15,2015-04-19 12:35:00,
2015-04-19 08:45:00,72.7,72.1,29.95,South,191,0.0,0.0,98,0.00,,,0.00,Wunderground v.1.15,2015-04-19 12:45:00,
2015-04-19 08:50:00,73.3,72.7,29.95,South,191,0.0,0.0,98,0.00,,,0.00,Wunderground v.1.15,2015-04-19 12:50:00,
2015-04-19 08:55:00,73.8,73.2,29.95,South,191,0.0,0.0,98,0.00,,,0.00,Wunderground v.1.15,2015-04-19 12:55:00,
2015-04-19 09:00:00,74.2,73.3,29.94,SSE,165,0.0,0.0,97,0.00,,,0.00,Wunderground v.1.15,2015-04-19 13:00:00,
2015-04-19 09:05:00,75.0,73.5,29.95,SSE,165,0.0,0.0,95,0.00,,,0.00,Wunderground v.1.15,2015-04-19 13:05:00,
2015-04-19 09:15:00,76.5,72.7,29.94,ESE,110,0.0,0.0,88,0.00,,,0.00,Wunderground v.1.15,2015-04-19 13:15:00,
2015-04-19 09:20:00,77.3,73.1,29.94,ESE,118,0.0,0.0,87,0.00,,,0.00,Wunderground v.1.15,2015-04-19 13:20:00,